Pau, France

4:35 AM CEST on September 23, 2017 (GMT +0200)
Pau / Pyrenees

Weather History for LFBP - March, 2013

Change the Weather History Date:

Monday, March 4, 2013

  Actual Average Record
Temperature  
Mean Temperature 48 °F -  
Max Temperature 64 °F 58 °F 80 °F (2007)
Min Temperature 33 °F 41 °F 30 °F (2005)
Degree Days  
Heating Degree Days 16    
Moisture  
Dew Point 37 °F    
Average Humidity 63    
Maximum Humidity 87    
Minimum Humidity 40    
Precipitation  
Precipitation 0.00 in - - ()
Sea Level Pressure  
Sea Level Pressure 29.68 in    
Wind  
Wind Speed 4 mph ()    
Max Wind Speed 12 mph    
Max Gust Speed -    
Visibility 6.2 miles    
Events      
Averages and records for this station are not official NWS values.
T = Trace of Precipitation, MM = Missing Value Source: Averaged Metar Reports

Daily Weather History Graph

Daily Weather History Graph

Search for Another Location

Airport or City:

Trip Planner

Search our weather history database for the weather conditions in past years. The results will help you decide how hot, cold, wet, or windy it might be!

Date:

Astronomy

Mar. 04, 2013 Rise Set
Actual Time 7:32 AM CET 6:54 PM CET
Civil Twilight 7:04 AM CET 7:23 PM CET
Nautical Twilight 6:31 AM CET 7:56 PM CET
Astronomical Twilight 5:58 AM CET 8:29 PM CET
Moon 1:33 AM CET (3/4) 11:15 AM CET (3/4)
Length of Visible Light 12h 18m
Length of Day
11h 21m
Waning Gibbous, 55% of the Moon is Illuminated
Mar 4
Waning Gibbous
Mar 4
Last Quarter
Mar 11
New
Mar 19
First Quarter
Mar 27
Full

Hourly Weather History & Observations

Time (CET) Temp. Windchill Dew Point Humidity Pressure Visibility Wind Dir Wind Speed Gust Speed Precip Events Conditions
12:00 AM 41.0 °F 39.0 °F 33.8 °F 76% 29.86 in 6.2 mi ESE 3.5 mph - N/A   Unknown
12:30 AM 39.2 °F 37.0 °F 33.8 °F 81% 29.83 in 6.2 mi SE 3.5 mph - N/A   Unknown
1:00 AM 39.2 °F 37.0 °F 32.0 °F 75% 29.83 in 6.2 mi ESE 3.5 mph - N/A   Unknown
1:30 AM 39.2 °F 35.9 °F 32.0 °F 75% 29.83 in 6.2 mi ESE 4.6 mph - N/A   Unknown
2:00 AM 39.2 °F 37.0 °F 32.0 °F 75% 29.80 in 6.2 mi SE 3.5 mph - N/A   Unknown
2:30 AM 39.2 °F 35.9 °F 32.0 °F 75% 29.80 in 6.2 mi SE 4.6 mph - N/A   Unknown
3:00 AM 39.2 °F 35.0 °F 32.0 °F 75% 29.80 in 6.2 mi SE 5.8 mph - N/A   Unknown
3:30 AM 37.4 °F - 32.0 °F 81% 29.80 in 6.2 mi Variable 2.3 mph - N/A   Unknown
4:00 AM 37.4 °F - 32.0 °F 81% 29.77 in 6.2 mi South 1.2 mph - N/A   Unknown
4:30 AM 37.4 °F 34.9 °F 32.0 °F 81% 29.77 in 6.2 mi East 3.5 mph - N/A   Unknown
5:00 AM 35.6 °F - 30.2 °F 81% 29.77 in 6.2 mi Variable 2.3 mph - N/A   Unknown
5:30 AM 35.6 °F - 30.2 °F 81% 29.77 in 6.2 mi Calm Calm - N/A   Unknown
6:00 AM 33.8 °F 30.8 °F 30.2 °F 87% 29.74 in - Variable 3.5 mph - N/A   Clear
6:30 AM 35.6 °F 31.7 °F 30.2 °F 81% 29.74 in - ESE 4.6 mph - N/A   Clear
7:00 AM 37.4 °F 34.9 °F 30.2 °F 75% 29.74 in - Variable 3.5 mph - N/A   Clear
7:30 AM 35.6 °F 31.7 °F 30.2 °F 81% 29.74 in - ESE 4.6 mph - N/A   Clear
8:00 AM 35.6 °F 31.7 °F 28.4 °F 75% 29.74 in - ESE 4.6 mph - N/A   Clear
8:30 AM 37.4 °F 34.9 °F 32.0 °F 81% 29.74 in - Variable 3.5 mph - N/A   Clear
9:00 AM 41.0 °F - 35.6 °F 81% 29.74 in - Calm Calm - N/A   Clear
9:30 AM 44.6 °F - 35.6 °F 71% 29.74 in - Variable 2.3 mph - N/A   Clear
10:00 AM 50.0 °F - 35.6 °F 58% 29.71 in - Calm Calm - N/A   Clear
10:30 AM 53.6 °F - 37.4 °F 54% 29.71 in - Variable 2.3 mph - N/A   Clear
11:00 AM 57.2 °F - 37.4 °F 48% 29.71 in - Variable 3.5 mph - N/A   Clear
11:30 AM 59.0 °F - 39.2 °F 48% 29.68 in - East 3.5 mph - N/A   Clear
12:00 PM 60.8 °F - 37.4 °F 42% 29.68 in - ENE 6.9 mph - N/A   Clear
12:30 PM 62.6 °F - 39.2 °F 42% 29.68 in - East 6.9 mph - N/A   Clear
1:00 PM 62.6 °F - 39.2 °F 42% 29.68 in - ENE 8.1 mph - N/A   Clear
1:30 PM 62.6 °F - 42.8 °F 48% 29.65 in - East 9.2 mph - N/A   Clear
2:00 PM 62.6 °F - 42.8 °F 48% 29.65 in - East 10.4 mph - N/A   Clear
2:30 PM 62.6 °F - 42.8 °F 48% 29.62 in - East 10.4 mph - N/A   Clear
3:00 PM 62.6 °F - 41.0 °F 45% 29.62 in - East 11.5 mph - N/A   Clear
3:30 PM 62.6 °F - 41.0 °F 45% 29.62 in - East 10.4 mph - N/A   Clear
4:00 PM 64.4 °F - 41.0 °F 42% 29.59 in - East 10.4 mph - N/A   Clear
4:30 PM 64.4 °F - 39.2 °F 40% 29.59 in - East 11.5 mph - N/A   Clear
5:00 PM 64.4 °F - 41.0 °F 42% 29.59 in - East 10.4 mph - N/A   Clear
5:30 PM 64.4 °F - 39.2 °F 40% 29.56 in - East 10.4 mph - N/A   Clear
6:00 PM 62.6 °F - 41.0 °F 45% 29.56 in - East 10.4 mph - N/A   Clear
6:30 PM 60.8 °F - 41.0 °F 48% 29.56 in - East 9.2 mph - N/A   Clear
7:00 PM 59.0 °F - 41.0 °F 51% 29.56 in - East 8.1 mph - N/A   Clear
7:30 PM 57.2 °F - 41.0 °F 55% 29.56 in - East 4.6 mph - N/A   Clear
8:00 PM 55.4 °F - 41.0 °F 58% 29.59 in - ESE 6.9 mph - N/A   Clear
8:30 PM 53.6 °F - 42.8 °F 67% 29.56 in - East 6.9 mph - N/A   Clear
9:00 PM 53.6 °F - 42.8 °F 67% 29.56 in - Variable 1.2 mph - N/A   Clear
9:30 PM 53.6 °F - 42.8 °F 67% 29.56 in 6.2 mi Variable 2.3 mph - N/A   Unknown
10:00 PM 51.8 °F - 42.8 °F 71% 29.56 in 6.2 mi East 5.8 mph - N/A   Unknown
10:30 PM 53.6 °F - 42.8 °F 67% 29.56 in 6.2 mi East 8.1 mph - N/A   Unknown
11:00 PM 55.4 °F - 41.0 °F 58% 29.56 in 6.2 mi East 5.8 mph - N/A   Unknown
11:30 PM 55.4 °F - 41.0 °F 58% 29.56 in 6.2 mi ESE 8.1 mph - N/A   Unknown